Saint Simons Island, GA

5:44 AM EST on January 22, 2018 (GMT -0500)
McKinnon

Weather History for KSSI - October, 2012

Change the Weather History Date:

Sunday, October 7, 2012

  Actual Average Record
Temperature  
Mean Temperature 78 °F 73 °F  
Max Temperature 87 °F 80 °F 91 °F (1951)
Min Temperature 69 °F 66 °F 50 °F (1964)
Degree Days  
Heating Degree Days 0 0  
Month to date heating degree days 0 0  
Since 1 July heating degree days 0 0  
Cooling Degree Days 13 8  
Month to date cooling degree days 99 63  
Year to date cooling degree days 2759 2434  
Growing Degree Days 28 (Base 50)    
Moisture  
Dew Point 72 °F    
Average Humidity 75    
Maximum Humidity 93    
Minimum Humidity 57    
Precipitation  
Precipitation 0.35 in 0.17 in 8.15 in (1996)
Month to date precipitation 1.03 1.31  
Year to date precipitation 37.18 37.18  
Snow  
Snow 0.00 in - 0.00 in ()
Month to date snowfall 0.0  
Since 1 July snowfall 0.0  
Since 1 September snowfall 0.0  
Snow Depth 0.00 in    
Sea Level Pressure  
Sea Level Pressure 29.98 in    
Wind  
Wind Speed 5 mph (SE)    
Max Wind Speed 22 mph    
Max Gust Speed 29 mph    
Visibility 9 miles    
Events Rain , Thunderstorm    
T = Trace of Precipitation, MM = Missing Value Source: NWS Daily Summary

Daily Weather History Graph

Daily Weather History Graph

Search for Another Location

Airport or City:

Trip Planner

Search our weather history database for the weather conditions in past years. The results will help you decide how hot, cold, wet, or windy it might be!

Date:

Astronomy

Oct. 07, 2012 Rise Set
Actual Time 7:23 AM EDT 7:02 PM EDT
Civil Twilight 6:59 AM EDT 7:26 PM EDT
Nautical Twilight 6:31 AM EDT 7:54 PM EDT
Astronomical Twilight 6:02 AM EDT 8:22 PM EDT
Moon No Moon Rise 1:44 PM EDT (10/7)
Length of Visible Light 12h 27m
Length of Day
11h 39m
Waning Gibbous, 56% of the Moon is Illuminated
Oct 7
Waning Gibbous
Oct 8
Last Quarter
Oct 15
New
Oct 21
First Quarter
Oct 29
Full

Hourly Weather History & Observations

Time (EDT) Temp. Heat Index Dew Point Humidity Pressure Visibility Wind Dir Wind Speed Gust Speed Precip Events Conditions
12:53 AM 79.0 °F - 72.0 °F 79% 29.96 in 10.0 mi South 3.5 mph - N/A   Mostly Cloudy
1:53 AM 75.9 °F - 71.1 °F 85% 29.97 in 10.0 mi Calm Calm - N/A   Clear
2:53 AM 75.9 °F - 72.0 °F 87% 29.95 in 10.0 mi Calm Calm - N/A   Clear
3:53 AM 75.0 °F - 72.0 °F 90% 29.95 in 10.0 mi Calm Calm - N/A   Clear
4:53 AM 75.0 °F - 72.0 °F 90% 29.95 in 10.0 mi Calm Calm - N/A   Clear
5:53 AM 73.9 °F - 71.1 °F 91% 29.95 in 9.0 mi Calm Calm - N/A   Clear
6:53 AM 73.9 °F - 72.0 °F 93% 29.96 in 10.0 mi Calm Calm - N/A   Clear
7:53 AM 73.9 °F - 72.0 °F 93% 29.98 in 10.0 mi West 3.5 mph - N/A   Clear
8:53 AM 77.0 °F - 73.0 °F 88% 29.99 in 10.0 mi WNW 4.6 mph - N/A   Clear
9:53 AM 79.0 °F - 73.0 °F 82% 29.99 in 10.0 mi West 4.6 mph - N/A   Clear
10:53 AM 81.0 °F 85.2 °F 72.0 °F 74% 29.99 in 10.0 mi Variable 3.5 mph - N/A   Partly Cloudy
11:53 AM 82.9 °F 87.0 °F 70.0 °F 65% 29.99 in 10.0 mi Variable 3.5 mph - N/A   Clear
12:53 PM 86.0 °F 90.7 °F 70.0 °F 59% 29.99 in 10.0 mi Calm Calm - N/A   Partly Cloudy
1:21 PM 84.2 °F 90.9 °F 73.4 °F 70% 29.98 in 10.0 mi SE 9.2 mph - N/A   Mostly Cloudy
1:46 PM 84.2 °F 90.9 °F 73.4 °F 70% 29.98 in 10.0 mi East 10.4 mph - N/A   Mostly Cloudy
1:53 PM 84.0 °F 90.2 °F 73.0 °F 69% 29.98 in 10.0 mi SE 8.1 mph - N/A   Mostly Cloudy
2:53 PM 84.0 °F 90.2 °F 73.0 °F 69% 29.96 in 10.0 mi ESE 9.2 mph - N/A   Clear
3:53 PM 84.9 °F 91.4 °F 73.0 °F 67% 29.95 in 10.0 mi ESE 11.5 mph - N/A   Clear
4:53 PM 82.9 °F 88.0 °F 72.0 °F 69% 29.94 in 10.0 mi SE 8.1 mph - N/A   Clear
5:53 PM 82.0 °F 86.7 °F 72.0 °F 71% 29.94 in 10.0 mi SE 8.1 mph - N/A   Clear
6:53 PM 80.1 °F 83.8 °F 72.0 °F 76% 29.96 in 10.0 mi SE 9.2 mph - N/A   Clear
7:53 PM 80.1 °F 83.8 °F 72.0 °F 76% 29.97 in 10.0 mi SE 9.2 mph - N/A   Clear
8:53 PM 80.1 °F 83.8 °F 72.0 °F 76% 29.98 in 10.0 mi SSE 6.9 mph - N/A   Partly Cloudy
9:53 PM 80.1 °F 84.2 °F 73.0 °F 79% 30.00 in 10.0 mi SSE 8.1 mph - N/A   Mostly Cloudy
10:53 PM 81.0 °F 85.8 °F 73.0 °F 77% 30.00 in 10.0 mi Variable 5.8 mph - N/A   Mostly Cloudy
11:01 PM 80.6 °F 85.4 °F 73.4 °F 79% 30.00 in 10.0 mi South 8.1 mph - N/A   Overcast
11:11 PM 80.6 °F 85.4 °F 73.4 °F 79% 30.01 in 10.0 mi WSW 9.2 mph - N/A Thunderstorm Thunderstorm
11:49 PM 71.6 °F - 68.0 °F 88% 30.02 in 1.5 mi North 18.4 mph 26.5 mph 0.22 in Rain , Thunderstorm Heavy Rain
11:53 PM 70.0 °F - 66.9 °F 90% 30.02 in 1.0 mi North 18.4 mph 27.6 mph 0.32 in Rain , Thunderstorm Heavy Rain